Waarnemingen

Advertentie
Mijn weer
Gemini, Nederland (6214): temperatuur & dauwpunt: 23.03.2017 01:00:00 - 29.03.2017 01:00:00 (CEST)Gemini, Nederland (6214): windsnelheid & windstoten: 23.03.2017 01:00:00 - 29.03.2017 01:00:00 (CEST)Gemini, Nederland (6214): windrichting: 23.03.2017 01:00:00 - 29.03.2017 01:00:00 (CEST)Gemini, Nederland (6214): luchtdruk: 23.03.2017 01:00:00 - 29.03.2017 01:00:00 (CEST)Gemini, Nederland (6214): zicht: 23.03.2017 01:00:00 - 29.03.2017 01:00:00 (CEST)
Datum & Tijd tt [°C] td [°C] ff [km/u] ff [kn] fx [km/u] fx [kn] dd ppp [hPa] vv [km]
29.03.2017 01:00:00 8,5 7,6 18 10 29 16 W 1018,6 4,0
29.03.2017 00:00:00 8,2 7,3 16 9 25 14 WZW 1018,6 2,8
28.03.2017 23:00:00 8,6 6,5 16 9 25 14 WZW 1019,0 7
28.03.2017 22:00:00 8,3 5,8 11 6 22 12 WZW 1019,0 10
28.03.2017 21:00:00 7,6 4,7 15 8 18 10 ZW 1019,0 10
28.03.2017 20:00:00 5,7 5,1 9 5 11 6 ZW 1018,9 1,2
28.03.2017 19:00:00 4,7 4,3 5 3 7 4 ZZW 1019,0 0,1
28.03.2017 18:00:00 5,2 4,9 4 2 7 4 - 1019,1 0,2
28.03.2017 17:00:00 5,6 5,0 4 2 7 4 WNW 1019,5 0,3
28.03.2017 16:00:00 6,1 5,3 8 4 11 6 W 1019,8 0,3
28.03.2017 15:00:00 5,7 5,3 4 2 7 4 - 1019,8 0,1
28.03.2017 14:00:00 5,5 4,9 4 2 7 4 - 1020,1 0,1
28.03.2017 13:00:00 6,3 6,2 5 3 11 6 NNO 1020,4 0,1
28.03.2017 12:00:00 5,4 5,1 5 3 14 8 - 1020,6 0,2
28.03.2017 11:00:00 5,0 4,6 8 4 11 6 Z 1020,4 0,2
28.03.2017 10:00:00 6,6 5,6 8 4 11 6 ZO 1020,3 5
28.03.2017 09:00:00 5,1 5,1 11 6 14 8 OZO 1020,1 0,1
28.03.2017 08:00:00 4,3 4,3 13 7 14 8 O 1019,8 0,1
28.03.2017 07:00:00 4,3 4,3 15 8 18 10 O 1019,8 0,3
28.03.2017 06:00:00 4,3 4,2 11 6 18 10 O 1020,1 0,4
28.03.2017 05:00:00 4,1 4,0 16 9 22 12 O 1020,6 0,4
28.03.2017 04:00:00 3,9 3,8 13 7 22 12 O 1021,2 0,4
28.03.2017 03:00:00 4,0 3,9 16 9 25 14 O 1021,8 0,3
28.03.2017 02:00:00 3,9 3,9 13 7 22 12 - 1022,4 0,4
28.03.2017 01:00:00 4,1 4,0 18 10 18 10 O 1022,6 0,3
28.03.2017 00:00:00 4,0 3,8 13 7 18 10 O 1023,0 0,3
27.03.2017 23:00:00 4,0 3,9 16 9 18 10 ONO 1023,4 0,3
27.03.2017 22:00:00 4,4 4,1 16 9 18 10 O 1023,4 0,5
27.03.2017 21:00:00 4,0 4,0 18 10 22 12 O 1023,0 0,3
27.03.2017 20:00:00 4,0 3,9 22 12 25 14 O 1023,0 0,2
27.03.2017 19:00:00 4,0 3,8 14 8 22 12 O 1023,3 0,1
27.03.2017 18:00:00 4,1 3,8 16 9 22 12 - 1023,7 0,1
27.03.2017 17:00:00 4,2 3,8 22 12 25 14 O 1024,0 0,2
27.03.2017 16:00:00 4,2 3,7 22 12 25 14 O 1024,6 1,9
27.03.2017 15:00:00 4,3 3,9 18 10 22 12 O 1025,2 1,3
27.03.2017 14:00:00 4,3 3,7 13 7 14 8 O 1025,9 0,4
27.03.2017 13:00:00 4,3 4,1 13 7 18 10 OZO 1026,2 0,2
27.03.2017 12:00:00 4,4 4,4 9 5 18 10 - 1026,3 0,1
27.03.2017 11:00:00 4,4 4,2 16 9 18 10 OZO 1026,3 0,1
27.03.2017 10:00:00 4,5 4,3 13 7 18 10 - 1026,5 0,1
27.03.2017 09:00:00 5,4 4,7 21 11 22 12 OZO 1026,3 10
27.03.2017 08:00:00 5,3 4,5 16 9 22 12 - 1026,2 10
27.03.2017 07:00:00 5,8 4,4 16 9 18 10 O 1026,2 10
27.03.2017 06:00:00 5,7 4,3 18 10 18 10 O 1026,1 10
27.03.2017 05:00:00 5,7 4,2 16 9 18 10 O 1026,3 10
27.03.2017 04:00:00 5,5 4,0 16 9 18 10 O 1026,5 10
27.03.2017 03:00:00 5,4 3,8 15 8 18 10 - 1027,0 10
27.03.2017 02:00:00 5,4 3,8 16 9 22 12 O 1027,3 10
27.03.2017 01:00:00 5,4 3,6 18 10 22 12 O 1027,5 10
27.03.2017 00:00:00 5,4 3,7 16 9 22 12 O 1027,5 10
26.03.2017 23:00:00 5,5 3,7 16 9 22 12 O 1027,6 10
26.03.2017 22:00:00 5,8 4,2 13 7 18 10 O 1027,5 10
26.03.2017 21:00:00 5,8 4,0 15 8 22 12 O 1027,2 10
26.03.2017 20:00:00 5,9 3,9 15 8 18 10 O 1027,1 10
26.03.2017 19:00:00 5,9 4,0 15 8 18 10 O 1027,0 10
26.03.2017 18:00:00 5,9 3,6 16 9 18 10 O 1027,0 10
26.03.2017 17:00:00 6,1 3,7 11 6 18 10 O 1027,4 10
26.03.2017 16:00:00 6,1 3,4 15 8 18 10 O 1027,7 10
26.03.2017 15:00:00 6,0 3,6 16 9 18 10 ONO 1028,0 10
26.03.2017 14:00:00 6,0 3,7 16 9 22 12 O 1028,1 10
26.03.2017 13:00:00 6,2 3,9 13 7 18 10 ONO 1028,0 10
26.03.2017 12:00:00 6,3 4,0 18 10 18 10 NO 1028,0 10
26.03.2017 11:00:00 6,6 4,6 15 8 14 8 NO 1027,9 10
26.03.2017 10:00:00 7,9 5,2 11 6 14 8 ONO 1027,9 10
26.03.2017 09:00:00 7,7 5,2 15 8 14 8 NO 1027,5 10
26.03.2017 08:00:00 7,3 5,0 9 5 11 6 NO 1027,0 10
26.03.2017 07:00:00 6,7 5,2 11 6 18 10 NNO 1026,9 10
26.03.2017 06:00:00 6,8 5,1 13 7 14 8 NNO 1027,1 10
26.03.2017 05:00:00 6,9 4,8 11 6 11 6 NO 1027,3 10
26.03.2017 04:00:00 6,9 4,5 8 4 14 8 NO 1027,5 10
26.03.2017 03:00:00 7,0 4,4 13 7 14 8 NNO 1027,9 10
26.03.2017 02:00:00 7,1 3,9 15 8 18 10 NNO 1028,3 10
26.03.2017 01:00:00 6,8 4,9 11 6 14 8 NNO 1028,5 10
26.03.2017 00:00:00 6,9 5,1 9 5 14 8 NNO 1029,0 10
25.03.2017 23:00:00 7,0 4,9 9 5 14 8 NO 1029,9 10
25.03.2017 22:00:00 6,8 5,2 9 5 11 6 N 1029,7 10
25.03.2017 21:00:00 6,9 4,7 11 6 11 6 NNO 1029,2 10
25.03.2017 20:00:00 7,2 4,4 9 5 14 8 NNO 1029,1 10
25.03.2017 19:00:00 7,5 4,3 9 5 14 8 NO 1029,5 10
25.03.2017 18:00:00 7,7 4,2 11 6 14 8 NNO 1029,6 10
25.03.2017 17:00:00 7,7 4,0 9 5 11 6 NNO 1030,3 10
25.03.2017 16:00:00 7,8 3,8 13 7 14 8 NNO 1031,1 10
25.03.2017 15:00:00 7,8 4,0 13 7 14 8 NNO 1032,2 10
25.03.2017 14:00:00 7,9 3,2 13 7 14 8 N 1032,7 10
25.03.2017 13:00:00 7,7 2,1 9 5 11 6 N 1033,4 10
25.03.2017 12:00:00 7,6 2,5 11 6 14 8 NNW 1033,6 10
25.03.2017 11:00:00 7,6 2,0 11 6 14 8 NNW 1033,7 10
25.03.2017 10:00:00 7,7 2,2 13 7 14 8 NNW 1033,8 10
25.03.2017 09:00:00 7,7 3,1 11 6 14 8 NNW 1033,5 10
25.03.2017 08:00:00 6,2 3,5 9 5 11 6 NNW 1033,6 10
25.03.2017 07:00:00 5,9 3,0 9 5 11 6 N 1033,5 10
25.03.2017 06:00:00 5,9 2,8 13 7 14 8 NNO 1033,7 10
25.03.2017 05:00:00 5,8 2,5 4 2 7 4 N 1033,9 10
25.03.2017 04:00:00 5,9 2,4 9 5 11 6 N 1034,4 10
25.03.2017 03:00:00 5,9 1,6 4 2 4 2 NNW 1035,0 10
25.03.2017 02:00:00 6,0 1,4 2 1 11 6 - 1034,9 10
25.03.2017 01:00:00 6,2 1,1 9 5 14 8 ONO 1034,9 10
25.03.2017 00:00:00 6,2 0,4 15 8 14 8 ONO 1034,9 10
24.03.2017 23:00:00 6,1 2,1 15 8 18 10 ONO 1034,9 10
24.03.2017 22:00:00 6,2 2,5 16 9 18 10 ONO 1034,6 10
24.03.2017 21:00:00 6,3 2,6 16 9 22 12 ONO 1034,4 10
24.03.2017 20:00:00 6,2 3,7 18 10 22 12 ONO 1034,1 10
24.03.2017 19:00:00 6,3 3,8 13 7 14 8 ONO 1033,9 10
24.03.2017 18:00:00 6,6 3,6 15 8 14 8 ONO 1033,8 10
24.03.2017 17:00:00 6,4 3,8 13 7 14 8 O 1034,2 10
24.03.2017 16:00:00 6,5 4,2 15 8 14 8 O 1034,3 10
24.03.2017 15:00:00 6,6 4,1 15 8 14 8 ONO 1034,2 10
24.03.2017 14:00:00 7,1 4,4 9 5 14 8 O 1033,9 10
24.03.2017 13:00:00 7,0 4,3 8 4 14 8 - 1033,5 10
24.03.2017 12:00:00 7,0 4,5 9 5 18 10 O 1033,0 10
24.03.2017 11:00:00 6,7 3,9 18 10 22 12 O 1032,6 10
24.03.2017 10:00:00 6,5 4,0 21 11 25 14 O 1032,1 10
24.03.2017 09:00:00 6,6 3,5 18 10 22 12 O 1031,6 10
24.03.2017 08:00:00 6,3 4,0 13 7 22 12 - 1031,2 10
24.03.2017 07:00:00 6,0 4,0 15 8 25 14 - 1030,8 10
24.03.2017 06:00:00 6,0 4,1 24 13 25 14 O 1029,7 10
24.03.2017 05:00:00 6,1 4,0 24 13 29 16 ONO 1029,2 10
24.03.2017 04:00:00 6,1 3,9 28 15 29 16 ONO 1029,0 10
24.03.2017 03:00:00 6,1 3,5 29 16 32 18 ONO 1028,5 10
24.03.2017 02:00:00 6,0 3,4 29 16 32 18 ONO 1027,9 10
24.03.2017 01:00:00 6,2 3,4 34 18 36 19 ONO 1027,6 10
24.03.2017 00:00:00 6,3 3,5 35 19 36 19 ONO 1027,2 10
23.03.2017 23:00:00 6,5 3,4 39 21 43 23 ONO 1026,8 10
23.03.2017 22:00:00 6,7 3,2 41 22 43 23 ONO 1026,1 10
23.03.2017 21:00:00 6,7 3,5 39 21 47 25 ONO 1025,2 10
23.03.2017 20:00:00 6,9 3,6 39 21 47 25 ONO 1024,3 10
23.03.2017 19:00:00 7,0 3,8 42 23 43 23 ONO 1023,2 10
23.03.2017 18:00:00 6,9 3,7 41 22 43 23 ONO 1022,4 10
23.03.2017 17:00:00 7,0 3,8 41 22 43 23 O 1021,9 10
23.03.2017 16:00:00 6,9 3,0 31 17 43 23 - 1021,7 10
23.03.2017 15:00:00 7,1 2,0 37 20 43 23 O 1021,9 10
23.03.2017 14:00:00 7,1 2,0 22 12 40 21 - 1021,9 10
23.03.2017 13:00:00 7,1 1,9 35 19 40 21 O 1021,5 10
23.03.2017 12:00:00 7,2 1,9 37 20 43 23 O 1021,0 10
23.03.2017 11:00:00 7,1 2,2 31 17 40 21 O 1020,6 10
23.03.2017 10:00:00 7,0 2,2 37 20 43 23 O 1020,1 10
23.03.2017 09:00:00 6,8 2,2 21 11 32 18 O 1019,7 10
23.03.2017 08:00:00 6,8 2,1 21 11 29 16 - 1019,5 10
23.03.2017 07:00:00 6,7 2,6 24 13 36 19 - 1018,8 10
23.03.2017 06:00:00 6,7 2,1 29 16 36 19 O 1018,1 10
23.03.2017 05:00:00 6,9 2,3 29 16 36 19 O 1017,8 10
23.03.2017 04:00:00 7,1 2,2 28 15 32 18 O 1017,6 10
23.03.2017 03:00:00 7,2 2,7 28 15 32 18 OZO 1017,7 10
23.03.2017 02:00:00 6,9 2,8 29 16 36 19 O 1017,7 10
23.03.2017 01:00:00 - - - - - - - - -

tt = temperatuur
td = dauwpunt
ff = windsnelheid
fx = windstoten
dd = windrichting
ppp = luchtdruk
vv = zicht

Weerstations in de omgeving